Regional Weather Roundup
Issued by NWS

Home | Current Version | Previous Version | Graphics & Text | Print | Product List | Glossary On
Versions: 1 2 3 4 5 6 7 8 9 10 11 12 13 14 15 16 17 18 19 20 21 22 23 24 25 26 27 28 29 30 31 32 33 34 35 36 37 38 39 40 41 42 43 44 45 46 47 48 49 50
000
ASUS45 KCYS 112310
RWRWY

WYOMING REGIONAL WEATHER ROUNDUP
NATIONAL WEATHER SERVICE CHEYENNE WY
500 PM MDT FRI JUL 11 2014

NOTE:  "FAIR" INDICATES FEW OR NO CLOUDS BELOW 12,000 FEET
WITH NO SIGNIFICANT WEATHER AND/OR OBSTRUCTIONS TO VISIBILITY.

WYZ001-120000-
YELLOWSTONE NATIONAL PARK

CITY           SKY/WX    TMP DP  RH WIND       PRES   REMARKS
LK YELLOWSTONE   N/A     69  49  48 VRB3      30.30S
W YELLOWSTONE  NOT AVBL

$$
WYZ002>013-054>058-071-098>099-120000-
NORTHERN WYOMING

CITY           SKY/WX    TMP DP  RH WIND       PRES   REMARKS
JACKSON        NOT AVBL
CODY           CLOUDY   N/A N/A N/A N13G20    30.15S
GREYBULL       CLOUDY    86  55  34 NW12      30.03S
WORLAND        CLOUDY    78  51  38 SE15      30.08S
SHERIDAN       PTSUNNY   82  60  47 CALM      30.09R
BUFFALO        CLOUDY    74  59  59 W9        30.15F
GILLETTE       CLOUDY    71  59  65 S20G29    30.11S
HULETT         FAIR      73  64  73 MISG      30.14
NEWCASTLE      LGT RAIN  64  57  77 S3        30.17

$$
WYZ014>020-022>026-101>103-120000-
CENTRAL WYOMING

CITY           SKY/WX    TMP DP  RH WIND       PRES   REMARKS
BIG PINEY      CLOUDY    70  47  43 SE15      30.29S
PINEDALE       CLOUDY    63  50  63 E9        30.31F
DUBOIS         RAIN      55  50  82 S22       30.29F
LANDER         LGT RAIN  68  56  65 NE18G28   30.21R
RIVERTON       LGT RAIN  62  58  86 NE16      30.22R
CASPER         CLOUDY    75  48  38 NE18G26   30.17R
DOUGLAS        CLOUDY    74  56  53 N24G35    30.16R

$$
WYZ021-027>030-104>119-120000-
SOUTHERN WYOMING

CITY           SKY/WX    TMP DP  RH WIND       PRES   REMARKS
EVANSTON       CLOUDY    68  56  65 E7        30.28F
KEMMERER       CLOUDY    70  48  46 SE9       30.30S
FORT BRIDGER   CLOUDY    67  56  67 SW5       30.32F
ROCK SPRINGS   PTSUNNY   77  49  37 N9        30.22F
DIXON          MOCLDY    82  47  29 W8        30.20S
RAWLINS        PTSUNNY   77  56  48 N15G23    30.21S
SARATOGA       CLOUDY    79  46  31 W14G21    30.22S THUNDER
LARAMIE        PTSUNNY   64  56  75 S6        30.26F
CHEYENNE       CLOUDY    74  56  53 N16G23    30.20R
TORRINGTON     CLOUDY    78  62  57 NE13      30.06F

$$


USA.gov is the U.S. government's official web portal to all federal, state and local government web resources and services.